Wind_Speed
22 22 22 23 23 23 23 23 23 22 22 23 23 24 24 24 24 24 24 24 24 24 24 24 24 24 25 25 25 25 24 24 23 23 23 23 22 22
23 23 23 24 25 24 24 24 24 24 24 24 24 25 25 25 25 25 25 25 24 24 24 23 23 24 24 25 25 26 25 25 24 24 23 22 23 23
24 24 24 24 25 25 25 25 25 25 25 25 25 25 26 26 26 25 25 25 25 25 24 24 24 24 24 24 25 25 25 25 25 25 24 23 23 23
24 24 24 25 25 25 26 26 26 26 26 26 26 26 27 26 26 25 25 25 26 25 25 25 24 23 24 23 23 24 25 25 25 25 25 25 25 24
25 25 25 25 26 26 27 27 27 28 28 27 27 27 27 27 26 26 26 27 26 25 25 24 23 23 23 24 24 24 25 25 25 25 25 25 25 25
26 26 26 26 27 27 28 28 29 29 29 29 29 29 28 27 26 26 27 26 26 25 24 24 23 23 23 24 25 25 25 25 25 25 25 25 25 26
27 27 28 28 28 29 29 30 30 31 30 30 29 29 28 27 26 26 26 26 26 25 24 25 24 24 24 24 25 25 25 24 24 24 25 25 24 25
29 29 29 30 30 30 31 31 31 31 30 30 30 29 28 28 27 27 26 26 26 25 25 25 25 25 24 24 25 25 24 24 24 24 25 25 25 25
29 29 30 31 31 32 32 32 32 31 31 31 30 30 29 27 27 26 26 26 26 25 25 25 25 25 24 24 23 23 24 23 24 24 23 24 25 25
31 31 31 31 32 32 33 34 33 32 32 31 31 30 29 28 28 27 26 26 26 25 25 26 25 25 25 24 24 23 23 23 23 23 23 23 23 23
32 32 32 32 32 33 33 33 33 32 32 31 31 29 28 28 27 26 26 25 26 26 25 26 26 25 25 24 23 23 22 22 22 22 22 22 22 22
33 34 33 33 33 33 33 32 31 31 30 30 30 29 29 28 26 25 26 26 26 26 25 25 25 25 24 23 23 23 23 23 22 22 21 21 21 21
33 33 33 33 33 33 32 31 31 30 29 29 28 28 28 27 26 25 26 27 26 26 26 25 25 26 25 24 24 23 23 23 23 23 22 21 21 21
33 32 32 32 32 32 31 31 30 29 28 28 27 27 27 27 26 26 26 26 26 26 27 27 26 26 26 25 24 24 23 23 24 23 23 22 22 22
32 32 31 31 31 31 32 31 29 28 28 28 27 26 26 26 26 26 27 27 27 27 27 27 27 27 26 25 24 24 24 24 24 24 23 24 24 23
31 31 30 30 30 30 30 30 29 28 28 27 27 26 26 26 27 27 27 26 27 27 27 27 27 26 26 26 25 25 25 24 24 24 24 24 23 23
30 30 29 29 30 30 30 29 28 28 28 27 26 26 26 26 26 27 26 26 26 26 26 27 27 26 26 25 25 25 25 24 23 23 24 23 23 23
29 28 28 28 29 29 28 27 26 26 25 25 25 24 24 24 25 26 26 26 25 25 25 25 25 25 25 24 24 24 24 23 23 23 22 23 23 24
28 28 27 28 27 26 25 25 25 25 24 24 23 22 22 23 23 24 24 24 24 24 24 24 24 25 24 24 24 23 23 22 22 22 22 22 23 23
28 28 27 26 25 25 24 24 23 23 23 23 23 22 22 22 22 23 23 24 24 24 24 24 24 25 24 24 23 22 22 22 22 22 22 22 22 23
27 26 25 25 24 24 23 22 22 22 22 22 22 22 21 21 21 22 22 22 23 23 24 24 25 24 23 22 22 22 21 21 22 22 22 22 22 22
25 25 24 23 23 23 22 21 21 21 21 21 21 20 20 20 20 21 21 22 22 22 23 23 23 22 22 22 21 21 21 21 21 21 22 21 21 21
23 23 22 22 22 22 22 21 21 21 21 20 19 18 19 19 19 19 20 20 20 20 21 21 21 20 21 21 21 21 21 21 21 21 20 20 20 20
Wind_Direction
294 294 293 293 293 292 292 290 290 289 286 284 284 283 283 282 282 280 278 279 282 282 282 280 276 273 273 273 273 273 273 272 271 270 267 263 263 265
296 295 294 294 292 291 292 291 292 293 292 288 286 286 285 283 283 281 277 276 279 281 279 278 276 273 272 273 274 273 271 269 269 268 266 264 262 263
295 293 292 293 293 291 291 292 291 292 292 291 288 286 285 284 285 283 278 276 277 278 277 278 278 276 273 272 272 272 271 268 267 267 264 262 263 263
295 293 293 292 293 291 291 291 291 290 290 289 288 286 284 283 283 281 278 278 277 276 276 277 277 277 276 273 271 272 270 269 268 266 264 263 263 264
297 296 295 293 292 292 291 290 289 288 288 287 286 285 284 282 280 280 279 278 276 275 274 274 276 277 276 274 272 271 270 270 268 267 267 264 262 262
296 295 294 293 293 293 293 290 289 288 289 287 286 284 283 281 279 278 278 276 275 275 274 274 275 275 275 275 274 272 272 270 268 267 268 268 263 261
294 294 293 293 293 293 292 293 291 289 290 287 286 283 282 282 281 278 276 275 274 274 275 274 273 274 275 276 275 273 271 269 266 265 266 266 265 263
294 294 293 293 293 293 292 293 293 291 289 288 287 286 284 282 279 276 274 275 274 272 273 274 273 272 272 275 274 270 269 268 264 263 263 261 260 261
295 294 295 294 293 293 292 292 292 290 288 287 286 287 284 282 278 276 274 274 274 272 272 273 273 273 273 273 274 270 269 269 264 264 262 262 259 259
296 296 296 295 294 293 291 291 289 288 287 285 285 284 282 280 277 274 272 274 273 271 269 270 270 271 274 274 272 271 269 269 267 264 265 261 260 260
295 295 294 292 293 293 292 291 288 286 284 284 283 281 279 278 276 273 271 273 272 270 269 269 269 271 271 271 270 270 269 267 266 265 263 259 260 262
295 295 294 293 293 293 292 291 288 285 284 282 280 278 276 275 275 273 271 271 270 268 268 268 269 270 268 267 268 269 269 268 267 265 262 262 264 263
297 296 295 293 293 292 291 290 288 285 284 282 278 276 274 273 274 273 271 270 268 267 268 268 268 269 269 268 268 268 268 267 267 266 263 264 264 262
297 297 296 294 292 292 291 290 288 286 284 281 279 277 274 272 271 271 270 269 267 268 268 268 267 267 267 267 267 266 266 266 267 265 263 261 261 262
297 297 297 296 294 292 291 289 288 286 284 281 280 277 274 271 269 270 271 271 270 268 267 267 267 266 265 266 266 264 264 264 264 262 262 259 259 260
299 297 297 297 295 293 292 291 287 286 285 281 278 276 273 271 270 270 271 272 270 269 268 267 267 268 266 265 266 264 262 261 261 261 261 259 258 258
300 298 297 296 296 295 293 291 289 288 286 282 279 275 273 272 270 268 269 270 270 268 266 266 265 266 267 266 265 263 261 259 259 261 260 260 259 258
302 299 297 297 297 295 294 293 291 290 287 284 280 277 275 273 271 269 268 269 269 269 267 267 265 264 265 265 265 264 261 258 258 259 260 262 262 261
302 302 298 297 297 295 295 296 294 291 287 283 280 277 273 271 270 268 267 268 269 268 267 267 266 265 263 264 264 265 262 260 260 262 263 264 264 263
302 301 301 301 300 299 299 297 295 291 288 286 282 277 273 271 268 266 267 268 267 266 266 266 266 264 261 262 262 261 262 262 261 262 263 264 263 261
302 301 301 301 302 301 299 297 294 291 288 286 283 280 277 275 271 269 270 268 266 264 264 264 264 263 261 260 260 260 260 261 261 262 261 262 261 259
304 303 302 301 300 299 298 297 295 292 287 285 285 283 280 277 274 272 271 270 268 266 263 262 261 261 260 259 259 259 259 260 260 261 260 261 261 258
305 304 305 304 303 301 298 296 296 294 291 288 286 283 279 277 277 276 272 270 268 268 266 264 263 262 259 257 257 258 257 258 259 261 258 258 259 257
Height
5833 5831 5829 5827 5825 5823 5821 5819 5818 5816 5815 5813 5811 5810 5808 5807 5805 5804 5803 5801 5800 5798 5797 5796 5794 5794 5794 5793 5792 5792 5791 5790 5790 5789 5788 5789 5789 5789
5827 5825 5823 5820 5818 5816 5814 5812 5810 5809 5807 5806 5804 5802 5801 5799 5798 5797 5795 5794 5792 5791 5790 5789 5787 5787 5786 5785 5785 5784 5783 5783 5782 5782 5782 5782 5782 5782
5820 5818 5816 5813 5811 5809 5807 5805 5803 5801 5800 5798 5796 5794 5793 5792 5790 5788 5787 5786 5785 5784 5782 5781 5780 5779 5779 5778 5777 5776 5776 5775 5775 5775 5775 5775 5775 5775
5813 5811 5809 5806 5804 5802 5799 5798 5796 5794 5792 5790 5788 5786 5785 5783 5782 5780 5779 5778 5777 5776 5775 5774 5773 5772 5771 5770 5769 5769 5768 5768 5768 5767 5768 5768 5768 5768
5806 5804 5801 5799 5797 5794 5792 5790 5788 5786 5784 5782 5780 5778 5777 5775 5774 5772 5771 5770 5769 5768 5767 5767 5766 5765 5764 5763 5762 5761 5761 5761 5761 5761 5760 5760 5761 5761
5800 5797 5794 5792 5789 5787 5784 5782 5780 5777 5775 5773 5772 5770 5768 5767 5766 5764 5763 5762 5761 5760 5760 5759 5758 5757 5757 5756 5755 5754 5754 5753 5753 5753 5753 5753 5754 5754
5793 5790 5787 5784 5781 5779 5776 5774 5771 5769 5767 5765 5763 5761 5760 5759 5757 5756 5755 5753 5753 5752 5752 5751 5751 5750 5749 5748 5748 5747 5746 5746 5746 5746 5746 5746 5747 5747
5785 5782 5779 5776 5773 5771 5768 5765 5763 5760 5758 5756 5755 5753 5751 5750 5748 5747 5746 5745 5745 5745 5744 5743 5743 5742 5742 5741 5740 5739 5739 5739 5739 5739 5739 5740 5740 5740
5777 5773 5770 5767 5764 5762 5759 5757 5754 5752 5750 5748 5746 5744 5742 5741 5740 5739 5738 5737 5737 5736 5736 5736 5735 5734 5734 5733 5733 5732 5732 5732 5732 5732 5732 5733 5733 5733
5768 5764 5761 5758 5755 5753 5750 5747 5745 5743 5741 5739 5737 5735 5733 5732 5731 5730 5729 5729 5729 5728 5728 5728 5727 5727 5726 5726 5726 5725 5725 5725 5725 5725 5725 5726 5726 5727
5758 5755 5752 5749 5746 5743 5740 5738 5736 5733 5731 5729 5727 5726 5724 5723 5722 5721 5721 5721 5721 5720 5720 5720 5720 5719 5719 5719 5719 5718 5718 5718 5718 5718 5718 5719 5719 5720
5749 5746 5743 5740 5736 5733 5730 5728 5725 5723 5721 5719 5718 5717 5716 5714 5714 5713 5713 5713 5713 5712 5711 5712 5712 5712 5712 5712 5712 5711 5711 5711 5711 5711 5712 5712 5713 5713
5739 5736 5733 5729 5726 5723 5720 5718 5716 5713 5711 5710 5708 5707 5707 5706 5705 5705 5705 5705 5705 5705 5704 5704 5704 5704 5705 5705 5705 5704 5705 5705 5705 5705 5705 5706 5706 5706
5730 5726 5723 5719 5716 5713 5710 5708 5706 5704 5702 5701 5699 5698 5698 5697 5697 5697 5696 5696 5696 5697 5696 5696 5696 5696 5697 5697 5697 5697 5697 5698 5698 5698 5699 5699 5699 5699
5720 5716 5713 5710 5707 5704 5701 5698 5696 5695 5693 5692 5691 5690 5689 5688 5688 5688 5688 5688 5688 5688 5688 5688 5688 5688 5689 5689 5689 5690 5690 5691 5691 5691 5691 5692 5692 5693
5710 5707 5704 5701 5698 5695 5692 5689 5687 5686 5684 5683 5682 5681 5680 5680 5680 5680 5679 5679 5680 5679 5679 5679 5679 5680 5680 5681 5681 5682 5683 5683 5684 5684 5684 5685 5685 5686
5701 5698 5695 5692 5689 5686 5683 5681 5679 5677 5675 5674 5673 5672 5671 5671 5671 5671 5671 5671 5671 5671 5671 5671 5671 5672 5672 5673 5673 5674 5675 5676 5676 5677 5677 5678 5679 5679
5693 5690 5687 5684 5681 5678 5675 5672 5670 5669 5667 5666 5664 5664 5663 5663 5663 5662 5663 5663 5663 5663 5663 5663 5663 5664 5665 5665 5666 5666 5667 5667 5669 5669 5670 5671 5672 5672
5685 5682 5679 5676 5673 5669 5667 5665 5663 5661 5659 5658 5657 5656 5655 5655 5654 5654 5654 5655 5655 5655 5655 5655 5655 5656 5657 5658 5658 5659 5660 5660 5661 5662 5663 5663 5665 5665
5678 5675 5671 5668 5665 5662 5659 5657 5655 5653 5651 5650 5649 5648 5648 5647 5647 5647 5647 5647 5647 5647 5647 5648 5648 5648 5649 5650 5651 5652 5652 5653 5654 5655 5656 5656 5657 5658
5671 5667 5664 5662 5659 5656 5653 5650 5648 5646 5644 5643 5642 5641 5640 5640 5639 5639 5639 5639 5639 5640 5640 5640 5640 5641 5641 5643 5644 5645 5645 5646 5647 5647 5648 5649 5650 5651
5664 5661 5658 5655 5652 5649 5647 5644 5642 5640 5638 5636 5635 5634 5633 5633 5632 5632 5632 5632 5632 5632 5633 5633 5633 5634 5634 5636 5637 5637 5638 5639 5639 5640 5641 5642 5643 5644
5658 5655 5652 5649 5646 5643 5640 5638 5636 5634 5632 5631 5629 5628 5627 5626 5626 5625 5625 5625 5626 5626 5626 5626 5626 5627 5628 5629 5630 5631 5631 5632 5633 5634 5635 5635 5636 5637